| time (UTC) | temp F | wind direction | speed MPH | gust MPH | rain 1hr in | rain 24hr in | rain mn in | humidity % | barometer mb |
| 20260506040035 | 56 | 102 | 9.0 | 12.0 | 0.03 | 0.19 | 0.03 | 98 | 1009.4 |
| 20260506035034 | 56 | 103 | 8.0 | 15.0 | 0.02 | 0.17 | 0.02 | 98 | 1009.4 |
| 20260506034534 | 56 | 88 | 7.0 | 14.0 | 0.01 | 0.17 | 0.01 | 98 | 1009.5 |
| 20260506034033 | 56 | 89 | 6.0 | 12.0 | 0.00 | 0.16 | 0.00 | 98 | 1009.6 |
| 20260506033537 | 56 | 100 | 5.0 | 9.0 | 0.00 | 0.16 | 0.00 | 98 | 1009.6 |
| 20260506033035 | 56 | 84 | 6.0 | 10.0 | 0.00 | 0.16 | 0.00 | 98 | 1009.5 |
| 20260506032534 | 56 | 80 | 7.0 | 8.0 | 0.00 | 0.16 | 0.00 | 98 | 1009.4 |
| 20260506031533 | 56 | 96 | 5.0 | 7.0 | 0.00 | 0.16 | 0.00 | 98 | 1009.5 |
| 20260506031034 | 56 | 73 | 6.0 | 7.0 | 0.00 | 0.16 | 0.00 | 98 | 1009.5 |
| 20260506030034 | 55 | 91 | 3.0 | 7.0 | 0.00 | 0.16 | 0.00 | 98 | 1009.8 |
| 20260506025535 | 55 | 58 | 2.0 | 5.0 | 0.00 | 0.16 | 0.00 | 98 | 1009.8 |
| 20260506025033 | 55 | 61 | 4.0 | 7.0 | 0.00 | 0.16 | 0.00 | 98 | 1009.8 |
| 20260506024533 | 55 | 63 | 3.0 | 7.0 | 0.00 | 0.16 | 0.00 | 98 | 1009.9 |
| 20260506024034 | 55 | 80 | 3.0 | 3.0 | 0.00 | 0.16 | 0.00 | 98 | 1010.1 |
| 20260506023035 | 55 | 72 | 2.0 | 3.0 | 0.00 | 0.16 | 0.00 | 98 | 1010.3 |
| 20260506022534 | 55 | 69 | 2.0 | 3.0 | 0.00 | 0.16 | 0.00 | 98 | 1010.2 |
| 20260506021534 | 55 | 161 | 1.0 | 2.0 | 0.00 | 0.16 | 0.00 | 98 | 1010.5 |
| 20260506021033 | 55 | 161 | 0.0 | 1.0 | 0.00 | 0.16 | 0.00 | 98 | 1010.6 |
| 20260506020534 | 55 | 161 | 0.0 | 0.0 | 0.00 | 0.16 | 0.00 | 98 | 1010.6 |
| 20260506020034 | 55 | 161 | 0.0 | 0.0 | 0.00 | 0.16 | 0.00 | 98 | 1010.6 |
| 20260506015533 | 55 | 161 | 0.0 | 0.0 | 0.00 | 0.16 | 0.00 | 98 | 1010.4 |
| 20260506015033 | 55 | 161 | 0.0 | 0.0 | 0.00 | 0.16 | 0.00 | 98 | 1010.4 |
| 20260506014533 | 55 | 161 | 0.0 | 2.0 | 0.00 | 0.16 | 0.00 | 98 | 1010.4 |
| 20260506013533 | 55 | 162 | 0.0 | 1.0 | 0.00 | 0.16 | 0.00 | 98 | 1010.6 |
| 20260506013034 | 55 | 162 | 0.0 | 1.0 | 0.00 | 0.16 | 0.00 | 97 | 1010.7 |
| 20260506012533 | 55 | 162 | 1.0 | 2.0 | 0.00 | 0.16 | 0.00 | 97 | 1010.7 |
| 20260506012033 | 55 | 163 | 1.0 | 3.0 | 0.00 | 0.16 | 0.00 | 97 | 1010.7 |
| 20260506011533 | 55 | 355 | 0.0 | 0.0 | 0.00 | 0.16 | 0.00 | 97 | 1010.8 |
| 20260506011035 | 55 | 355 | 0.0 | 0.0 | 0.00 | 0.16 | 0.00 | 97 | 1010.9 |
| 20260506005533 | 55 | 355 | 0.0 | 0.0 | 0.00 | 0.16 | 0.00 | 97 | 1010.8 |
| 20260506005033 | 55 | 355 | 0.0 | 0.0 | 0.00 | 0.16 | 0.00 | 97 | 1010.8 |
| 20260506004534 | 55 | 355 | 0.0 | 0.0 | 0.00 | 0.16 | 0.00 | 97 | 1010.9 |
| 20260506004048 | 55 | 355 | 1.0 | 2.0 | 0.00 | 0.16 | 0.00 | 97 | 1010.9 |
| 20260506003533 | 55 | 220 | 0.0 | 2.0 | 0.00 | 0.16 | 0.00 | 97 | 1011.1 |
| 20260506003033 | 55 | 220 | 1.0 | 2.0 | 0.00 | 0.16 | 0.00 | 97 | 1011.2 |
| 20260506002033 | 55 | 257 | 1.0 | 2.0 | 0.00 | 0.16 | 0.00 | 97 | 1011.1 |
| 20260506001533 | 55 | 256 | 2.0 | 2.0 | 0.00 | 0.16 | 0.00 | 97 | 1011.3 |
| 20260506001034 | 55 | 216 | 0.0 | 0.0 | 0.00 | 0.16 | 0.00 | 97 | 1011.2 |
| 20260506000533 | 55 | 216 | 2.0 | 3.0 | 0.00 | 0.16 | 0.00 | 97 | 1011.3 |
| 20260506000033 | 55 | 84 | 0.0 | 0.0 | 0.00 | 0.16 | 0.00 | 97 | 1011.3 |
| 20260505235033 | 55 | 84 | 1.0 | 2.0 | 0.00 | 0.16 | 0.00 | 97 | 1011.3 |
| 20260505234033 | 55 | 183 | 1.0 | 3.0 | 0.00 | 0.16 | 0.00 | 97 | 1011.4 |
| 20260505233033 | 55 | 113 | 3.0 | 3.0 | 0.00 | 0.16 | 0.00 | 97 | 1011.5 |
| 20260505232533 | 55 | 104 | 2.0 | 3.0 | 0.00 | 0.16 | 0.00 | 97 | 1011.6 |
| 20260505232032 | 55 | 86 | 3.0 | 5.0 | 0.00 | 0.16 | 0.00 | 97 | 1011.6 |
| 20260505231532 | 55 | 93 | 2.0 | 5.0 | 0.00 | 0.16 | 0.00 | 97 | 1011.6 |
| 20260505230535 | 55 | 71 | 1.0 | 3.0 | 0.00 | 0.16 | 0.00 | 97 | 1011.5 |
| 20260505230036 | 55 | 71 | 2.0 | 3.0 | 0.00 | 0.16 | 0.00 | 97 | 1011.5 |
| 20260505225033 | 55 | 73 | 2.0 | 3.0 | 0.00 | 0.16 | 0.00 | 97 | 1011.6 |
| 20260505224033 | 55 | 72 | 2.0 | 3.0 | 0.00 | 0.16 | 0.00 | 97 | 1011.5 |
| 20260505223533 | 55 | 63 | 3.0 | 5.0 | 0.00 | 0.16 | 0.00 | 97 | 1011.6 |
| 20260505222533 | 55 | 91 | 2.0 | 3.0 | 0.00 | 0.16 | 0.00 | 97 | 1011.6 |
| 20260505222033 | 55 | 84 | 3.0 | 6.0 | 0.00 | 0.16 | 0.00 | 96 | 1011.6 |
| 20260505221536 | 55 | 88 | 3.0 | 5.0 | 0.00 | 0.16 | 0.00 | 96 | 1011.5 |
| 20260505221033 | 55 | 90 | 3.0 | 5.0 | 0.00 | 0.16 | 0.00 | 96 | 1011.6 |
| 20260505220534 | 55 | 81 | 4.0 | 6.0 | 0.00 | 0.16 | 0.00 | 96 | 1011.6 |
| 20260505215033 | 55 | 93 | 4.0 | 5.0 | 0.00 | 0.16 | 0.16 | 96 | 1011.7 |
| 20260505214533 | 55 | 98 | 2.0 | 3.0 | 0.00 | 0.16 | 0.16 | 96 | 1011.8 |
| 20260505214032 | 55 | 81 | 2.0 | 5.0 | 0.00 | 0.16 | 0.16 | 96 | 1011.9 |
| 20260505213535 | 55 | 86 | 3.0 | 5.0 | 0.00 | 0.16 | 0.16 | 96 | 1012.0 |
| 20260505213034 | 55 | 89 | 3.0 | 6.0 | 0.00 | 0.16 | 0.16 | 96 | 1012.1 |
| 20260505212533 | 55 | 86 | 3.0 | 6.0 | 0.00 | 0.16 | 0.16 | 95 | 1012.2 |
| 20260505212032 | 55 | 97 | 3.0 | 6.0 | 0.00 | 0.16 | 0.16 | 95 | 1012.2 |
| 20260505211036 | 56 | 79 | 3.0 | 7.0 | 0.00 | 0.16 | 0.16 | 95 | 1012.3 |
| 20260505210533 | 56 | 77 | 3.0 | 6.0 | 0.00 | 0.16 | 0.16 | 95 | 1012.3 |
| 20260505210040 | 56 | 78 | 3.0 | 5.0 | 0.00 | 0.16 | 0.16 | 95 | 1012.3 |
| 20260505205534 | 56 | 62 | 5.0 | 6.0 | 0.00 | 0.16 | 0.16 | 95 | 1012.3 |
| 20260505204548 | 56 | 86 | 4.0 | 6.0 | 0.00 | 0.16 | 0.16 | 94 | 1012.3 |
| 20260505204032 | 56 | 79 | 5.0 | 7.0 | 0.00 | 0.16 | 0.16 | 94 | 1012.3 |
| 20260505203534 | 56 | 83 | 3.0 | 7.0 | 0.00 | 0.16 | 0.16 | 94 | 1012.4 |
| 20260505203032 | 56 | 69 | 5.0 | 7.0 | 0.00 | 0.16 | 0.16 | 94 | 1012.3 |
| 20260505202533 | 56 | 71 | 2.0 | 8.0 | 0.00 | 0.16 | 0.16 | 94 | 1012.3 |
| 20260505201533 | 57 | 78 | 3.0 | 5.0 | 0.00 | 0.16 | 0.16 | 93 | 1012.3 |
| 20260505201033 | 57 | 64 | 3.0 | 6.0 | 0.00 | 0.16 | 0.16 | 93 | 1012.3 |
| 20260505200536 | 57 | 64 | 3.0 | 6.0 | 0.00 | 0.16 | 0.16 | 93 | 1012.3 |
| 20260505200048 | 57 | 78 | 3.0 | 7.0 | 0.00 | 0.16 | 0.16 | 92 | 1012.2 |
| 20260505195532 | 57 | 86 | 3.0 | 5.0 | 0.00 | 0.16 | 0.16 | 92 | 1012.2 |
| 20260505195034 | 57 | 82 | 3.0 | 7.0 | 0.00 | 0.16 | 0.16 | 92 | 1012.2 |
| 20260505194533 | 58 | 70 | 3.0 | 8.0 | 0.00 | 0.16 | 0.16 | 91 | 1012.1 |
| 20260505194033 | 58 | 76 | 3.0 | 5.0 | 0.00 | 0.16 | 0.16 | 91 | 1012.1 |
| 20260505193548 | 58 | 70 | 4.0 | 7.0 | 0.00 | 0.16 | 0.16 | 91 | 1012.1 |
| 20260505193032 | 58 | 80 | 4.0 | 9.0 | 0.00 | 0.16 | 0.16 | 91 | 1012.0 |
| 20260505192532 | 58 | 71 | 4.0 | 7.0 | 0.00 | 0.16 | 0.16 | 90 | 1012.0 |
| 20260505192035 | 58 | 69 | 4.0 | 6.0 | 0.00 | 0.16 | 0.16 | 90 | 1012.0 |
| 20260505191533 | 59 | 64 | 4.0 | 7.0 | 0.00 | 0.16 | 0.16 | 90 | 1012.0 |
| 20260505191032 | 59 | 77 | 5.0 | 8.0 | 0.00 | 0.16 | 0.16 | 90 | 1012.0 |
| 20260505190533 | 59 | 67 | 5.0 | 8.0 | 0.00 | 0.16 | 0.16 | 90 | 1012.0 |
| 20260505190033 | 59 | 78 | 2.0 | 7.0 | 0.00 | 0.16 | 0.16 | 90 | 1012.0 |
| 20260505185532 | 59 | 58 | 4.0 | 6.0 | 0.00 | 0.16 | 0.16 | 89 | 1011.9 |
| 20260505185032 | 59 | 83 | 5.0 | 7.0 | 0.00 | 0.16 | 0.16 | 89 | 1011.9 |
| 20260505184532 | 59 | 77 | 6.0 | 8.0 | 0.00 | 0.16 | 0.16 | 89 | 1011.8 |
| 20260505184032 | 60 | 71 | 5.0 | 10.0 | 0.00 | 0.16 | 0.16 | 88 | 1011.9 |
| 20260505183533 | 60 | 67 | 4.0 | 7.0 | 0.00 | 0.16 | 0.16 | 88 | 1012.0 |
| 20260505183032 | 60 | 63 | 4.0 | 7.0 | 0.00 | 0.16 | 0.16 | 88 | 1011.9 |
| 20260505182533 | 60 | 61 | 4.0 | 7.0 | 0.00 | 0.16 | 0.16 | 88 | 1011.8 |
| 20260505182032 | 60 | 52 | 2.0 | 3.0 | 0.00 | 0.16 | 0.16 | 87 | 1011.8 |
| 20260505181533 | 60 | 76 | 3.0 | 5.0 | 0.00 | 0.16 | 0.16 | 87 | 1011.7 |
| 20260505181032 | 61 | 65 | 5.0 | 7.0 | 0.00 | 0.16 | 0.16 | 86 | 1011.8 |
| 20260505180532 | 61 | 66 | 4.0 | 7.0 | 0.00 | 0.16 | 0.16 | 86 | 1011.8 |
| 20260505175535 | 61 | 62 | 6.0 | 9.0 | 0.00 | 0.16 | 0.16 | 86 | 1011.7 |
| 20260505175032 | 61 | 62 | 6.0 | 8.0 | 0.00 | 0.16 | 0.16 | 86 | 1011.5 |
| 20260505174532 | 61 | 59 | 6.0 | 8.0 | 0.00 | 0.16 | 0.16 | 86 | 1011.6 |
| 20260505174033 | 61 | 65 | 5.0 | 10.0 | 0.00 | 0.16 | 0.16 | 85 | 1011.6 |
| 20260505173533 | 61 | 70 | 5.0 | 8.0 | 0.00 | 0.16 | 0.16 | 85 | 1011.6 |
| 20260505172531 | 62 | 58 | 5.0 | 10.0 | 0.00 | 0.16 | 0.16 | 85 | 1011.5 |
| 20260505172031 | 62 | 57 | 7.0 | 12.0 | 0.00 | 0.16 | 0.16 | 85 | 1011.5 |
| 20260505171532 | 62 | 64 | 3.0 | 9.0 | 0.00 | 0.16 | 0.16 | 85 | 1011.5 |
| 20260505171032 | 62 | 52 | 5.0 | 12.0 | 0.00 | 0.16 | 0.16 | 85 | 1011.4 |
| 20260505170532 | 62 | 66 | 7.0 | 12.0 | 0.00 | 0.16 | 0.16 | 86 | 1011.4 |
| 20260505170032 | 62 | 80 | 6.0 | 10.0 | 0.00 | 0.16 | 0.16 | 86 | 1011.5 |
| 20260505165533 | 62 | 62 | 8.0 | 12.0 | 0.00 | 0.16 | 0.16 | 86 | 1011.5 |
| 20260505164532 | 62 | 75 | 8.0 | 12.0 | 0.00 | 0.16 | 0.16 | 85 | 1011.5 |
| 20260505164032 | 62 | 70 | 9.0 | 15.0 | 0.00 | 0.16 | 0.16 | 84 | 1011.5 |
| 20260505163532 | 63 | 77 | 8.0 | 13.0 | 0.00 | 0.16 | 0.16 | 84 | 1011.6 |
| 20260505162034 | 63 | 64 | 6.0 | 9.0 | 0.00 | 0.16 | 0.16 | 83 | 1011.5 |
| 20260505161532 | 63 | 60 | 7.0 | 10.0 | 0.00 | 0.16 | 0.16 | 83 | 1011.5 |
| 20260505161035 | 63 | 90 | 7.0 | 12.0 | 0.00 | 0.16 | 0.16 | 83 | 1011.5 |
| 20260505160532 | 63 | 73 | 9.0 | 13.0 | 0.00 | 0.16 | 0.16 | 83 | 1011.6 |
| 20260505153031 | 63 | 71 | 6.0 | 13.0 | 0.00 | 0.16 | 0.16 | 84 | 1011.9 |
| 20260505152031 | 63 | 55 | 5.0 | 12.0 | 0.00 | 0.16 | 0.16 | 84 | 1011.8 |
| 20260505151531 | 63 | 59 | 9.0 | 12.0 | 0.00 | 0.16 | 0.16 | 83 | 1011.8 |
| 20260505151032 | 63 | 65 | 6.0 | 12.0 | 0.00 | 0.16 | 0.16 | 83 | 1011.8 |
| 20260505150532 | 63 | 49 | 7.0 | 12.0 | 0.00 | 0.16 | 0.16 | 83 | 1011.8 |
| 20260505140533 | 64 | 72 | 9.0 | 14.0 | 0.00 | 0.16 | 0.16 | 84 | 1011.9 |
| 20260505125031 | 61 | 82 | 10.0 | 15.0 | 0.00 | 0.16 | 0.16 | 87 | 1012.5 |
| 20260505124531 | 61 | 78 | 7.0 | 10.0 | 0.00 | 0.16 | 0.16 | 88 | 1012.4 |
| 20260505124031 | 61 | 75 | 7.0 | 12.0 | 0.00 | 0.16 | 0.16 | 88 | 1012.4 |
| 20260505123531 | 61 | 87 | 6.0 | 9.0 | 0.00 | 0.16 | 0.16 | 89 | 1012.5 |
| 20260505123031 | 60 | 77 | 4.0 | 9.0 | 0.00 | 0.16 | 0.16 | 90 | 1012.6 |
| 20260505122534 | 60 | 90 | 7.0 | 12.0 | 0.00 | 0.16 | 0.16 | 90 | 1012.7 |
| 20260505122031 | 60 | 97 | 6.0 | 12.0 | 0.00 | 0.16 | 0.16 | 90 | 1012.7 |
| 20260505121542 | 60 | 76 | 3.0 | 12.0 | 0.00 | 0.16 | 0.16 | 90 | 1012.7 |
| 20260505120531 | 60 | 77 | 7.0 | 12.0 | 0.00 | 0.16 | 0.16 | 91 | 1012.7 |
| 20260505120034 | 60 | 86 | 6.0 | 9.0 | 0.00 | 0.16 | 0.16 | 91 | 1012.7 |
| 20260505115030 | 60 | 88 | 6.0 | 14.0 | 0.00 | 0.16 | 0.16 | 91 | 1012.7 |
| 20260505114531 | 60 | 72 | 9.0 | 13.0 | 0.00 | 0.16 | 0.16 | 92 | 1012.7 |
| 20260505114032 | 60 | 64 | 9.0 | 13.0 | 0.00 | 0.16 | 0.16 | 92 | 1012.8 |
| 20260505113531 | 60 | 58 | 5.0 | 12.0 | 0.00 | 0.16 | 0.16 | 93 | 1012.9 |
| 20260505113032 | 59 | 75 | 7.0 | 12.0 | 0.00 | 0.16 | 0.16 | 92 | 1012.9 |
| 20260505112530 | 59 | 86 | 6.0 | 8.0 | 0.00 | 0.16 | 0.16 | 92 | 1012.9 |
| 20260505112038 | 59 | 85 | 7.0 | 10.0 | 0.00 | 0.16 | 0.16 | 93 | 1012.9 |
| 20260505111546 | 59 | 99 | 6.0 | 13.0 | 0.00 | 0.16 | 0.16 | 93 | 1012.9 |
| 20260505111031 | 59 | 69 | 9.0 | 10.0 | 0.00 | 0.16 | 0.16 | 93 | 1012.9 |
| 20260505110531 | 59 | 86 | 7.0 | 12.0 | 0.00 | 0.16 | 0.16 | 94 | 1013.0 |
| 20260505102031 | 57 | 119 | 4.0 | 7.0 | 0.00 | 0.16 | 0.16 | 96 | 1013.1 |
| 20260505101031 | 57 | 65 | 5.0 | 9.0 | 0.01 | 0.16 | 0.16 | 96 | 1012.9 |
| 20260505100531 | 57 | 60 | 4.0 | 7.0 | 0.02 | 0.16 | 0.16 | 96 | 1012.9 |
| 20260505100032 | 57 | 99 | 3.0 | 7.0 | 0.02 | 0.16 | 0.16 | 96 | 1012.9 |
| 20260505095530 | 57 | 75 | 6.0 | 7.0 | 0.02 | 0.16 | 0.16 | 96 | 1013.0 |
| 20260505095031 | 57 | 116 | 3.0 | 5.0 | 0.03 | 0.16 | 0.16 | 96 | 1013.0 |
| 20260505094530 | 57 | 105 | 5.0 | 8.0 | 0.03 | 0.16 | 0.16 | 96 | 1013.0 |
| 20260505094033 | 57 | 119 | 5.0 | 7.0 | 0.04 | 0.16 | 0.16 | 96 | 1013.0 |
| 20260505093530 | 57 | 98 | 5.0 | 7.0 | 0.04 | 0.16 | 0.16 | 96 | 1013.0 |
| 20260505092531 | 57 | 82 | 3.0 | 9.0 | 0.05 | 0.16 | 0.16 | 96 | 1012.9 |
| 20260505092032 | 57 | 89 | 5.0 | 9.0 | 0.06 | 0.16 | 0.16 | 96 | 1012.9 |
| 20260505091530 | 57 | 76 | 5.0 | 7.0 | 0.06 | 0.15 | 0.15 | 95 | 1012.9 |
| 20260505090530 | 57 | 77 | 6.0 | 8.0 | 0.06 | 0.14 | 0.14 | 95 | 1012.8 |
| 20260505090032 | 57 | 78 | 5.0 | 7.0 | 0.06 | 0.13 | 0.13 | 95 | 1012.8 |
| 20260505085531 | 57 | 114 | 3.0 | 6.0 | 0.07 | 0.13 | 0.13 | 95 | 1012.9 |
| 20260505085031 | 57 | 101 | 3.0 | 7.0 | 0.06 | 0.13 | 0.13 | 95 | 1012.9 |
| 20260505084536 | 57 | 84 | 3.0 | 7.0 | 0.07 | 0.13 | 0.13 | 94 | 1012.7 |
| 20260505084030 | 57 | 79 | 5.0 | 6.0 | 0.07 | 0.12 | 0.12 | 94 | 1012.7 |
| 20260505083530 | 57 | 85 | 4.0 | 8.0 | 0.07 | 0.12 | 0.12 | 94 | 1012.7 |
| 20260505083031 | 57 | 92 | 3.0 | 6.0 | 0.07 | 0.11 | 0.11 | 94 | 1012.7 |
| 20260505082533 | 57 | 80 | 2.0 | 3.0 | 0.08 | 0.11 | 0.11 | 94 | 1012.7 |
| 20260505082030 | 57 | 80 | 1.0 | 3.0 | 0.07 | 0.10 | 0.10 | 94 | 1012.6 |
| 20260505081530 | 57 | 113 | 5.0 | 7.0 | 0.06 | 0.09 | 0.09 | 94 | 1012.5 |
| 20260505081030 | 57 | 93 | 3.0 | 7.0 | 0.06 | 0.09 | 0.09 | 94 | 1012.4 |
| 20260505080530 | 57 | 93 | 2.0 | 6.0 | 0.06 | 0.08 | 0.08 | 94 | 1012.4 |
| 20260505075032 | 57 | 91 | 3.0 | 7.0 | 0.06 | 0.06 | 0.06 | 93 | 1012.6 |
| 20260505074530 | 57 | 120 | 3.0 | 5.0 | 0.06 | 0.06 | 0.06 | 93 | 1012.8 |
| 20260505074030 | 57 | 127 | 2.0 | 5.0 | 0.05 | 0.06 | 0.06 | 93 | 1012.8 |
| 20260505073530 | 58 | 128 | 2.0 | 5.0 | 0.04 | 0.05 | 0.05 | 93 | 1012.9 |
| 20260505073030 | 58 | 144 | 2.0 | 3.0 | 0.04 | 0.04 | 0.04 | 92 | 1012.8 |
| 20260505072530 | 58 | 160 | 2.0 | 3.0 | 0.04 | 0.04 | 0.04 | 92 | 1012.8 |
| 20260505072030 | 58 | 171 | 2.0 | 3.0 | 0.03 | 0.03 | 0.03 | 92 | 1012.8 |
| 20260505071530 | 58 | 190 | 2.0 | 3.0 | 0.03 | 0.03 | 0.03 | 91 | 1012.7 |
| 20260505071030 | 58 | 164 | 0.0 | 3.0 | 0.03 | 0.03 | 0.03 | 91 | 1012.7 |
| 20260505070530 | 58 | 168 | 2.0 | 3.0 | 0.02 | 0.02 | 0.02 | 90 | 1012.8 |
| 20260505070030 | 59 | 174 | 2.0 | 3.0 | 0.02 | 0.02 | 0.02 | 91 | 1012.8 |
| 20260505065030 | 59 | 170 | 3.0 | 5.0 | 0.01 | 0.01 | 0.01 | 89 | 1012.8 |
| 20260505064529 | 59 | 184 | 2.0 | 3.0 | 0.01 | 0.01 | 0.01 | 89 | 1012.7 |
| 20260505064030 | 59 | 160 | 2.0 | 3.0 | 0.01 | 0.01 | 0.01 | 88 | 1012.6 |
| 20260505063030 | 60 | 150 | 2.0 | 3.0 | 0.00 | 0.00 | 0.00 | 88 | 1012.4 |
| 20260505062530 | 60 | 163 | 3.0 | 3.0 | 0.00 | 0.00 | 0.00 | 88 | 1012.4 |
| 20260505062030 | 60 | 138 | 3.0 | 5.0 | 0.00 | 0.00 | 0.00 | 88 | 1012.3 |
| 20260505061531 | 59 | 125 | 2.0 | 5.0 | 0.00 | 0.00 | 0.00 | 88 | 1012.2 |
| 20260505061030 | 59 | 113 | 4.0 | 8.0 | 0.00 | 0.00 | 0.00 | 88 | 1012.2 |
| 20260505060531 | 59 | 112 | 1.0 | 8.0 | 0.00 | 0.00 | 0.00 | 88 | 1012.2 |
| 20260505055530 | 59 | 111 | 1.0 | 2.0 | 0.00 | 0.00 | 0.00 | 88 | 1012.1 |
| 20260505054530 | 59 | 68 | 0.0 | 3.0 | 0.00 | 0.00 | 0.00 | 86 | 1011.9 |
| 20260505054046 | 59 | 71 | 3.0 | 3.0 | 0.00 | 0.00 | 0.00 | 85 | 1011.8 |
| 20260505053032 | 58 | 71 | 3.0 | 5.0 | 0.00 | 0.00 | 0.00 | 84 | 1011.8 |
| 20260505052531 | 58 | 80 | 2.0 | 3.0 | 0.00 | 0.00 | 0.00 | 84 | 1011.8 |
| 20260505051530 | 58 | 64 | 2.0 | 5.0 | 0.00 | 0.00 | 0.00 | 83 | 1011.8 |
| 20260505050530 | 58 | 49 | 2.0 | 3.0 | 0.00 | 0.00 | 0.00 | 85 | 1011.8 |
| 20260505041529 | 59 | 84 | 0.0 | 2.0 | 0.00 | 0.00 | 0.00 | 78 | 1011.9 |
| 20260505041030 | 59 | 132 | 0.0 | 0.0 | 0.00 | 0.00 | 0.00 | 76 | 1011.9 |